AF5AA Weather Reports


time (UTC)temp
C
wind
direction
speed
KPH
gust
KPH
rain 1hr
cm
rain 24hr
cm
rain mn
cm
humidity
%
barometer
mb
20260901082900 25 102 0.0 0.0 0.00 0.00 0.00 81 1016.2
20260901082355 25 102 0.0 0.0 0.00 0.00 0.00 80 1015.9
20260901081850 25 101 0.0 0.0 0.00 0.00 0.00 80 1016.0
20260901081345 25 100 0.0 0.0 0.00 0.00 0.00 80 1015.9
20260901080839 25 101 0.0 0.0 0.00 0.00 0.00 79 1015.8
20260901080334 25 98 0.0 0.0 0.00 0.00 0.00 79 1015.8
20260901075828 25 98 0.0 0.0 0.00 0.00 0.00 79 1015.8
20260901075323 25 100 0.0 0.0 0.00 0.00 0.00 78 1015.7
20260901074819 25 100 0.0 0.0 0.00 0.00 0.00 78 1015.9
20260901074313 25 100 0.0 0.0 0.00 0.00 0.00 77 1015.6
20260901073808 25 100 0.0 0.0 0.00 0.00 0.00 77 1015.6
20260901073304 25 99 0.0 0.0 0.00 0.00 0.00 77 1015.8
20260901072800 25 102 0.0 0.0 0.00 0.00 0.00 77 1016.0
20260901072300 26 104 0.0 0.0 0.00 0.00 0.00 77 1015.7
20260901071755 26 104 0.0 0.0 0.00 0.00 0.00 76 1015.8
20260901071253 26 108 0.0 0.0 0.00 0.00 0.00 76 1015.9
20260901070752 26 100 0.0 0.0 0.00 0.00 0.00 75 1015.8
20260901070248 26 100 0.0 0.0 0.00 0.00 0.00 75 1015.7
20260901065747 26 102 0.0 0.0 0.00 0.00 0.00 75 1015.7
20260901065243 26 104 0.0 0.0 0.00 0.00 0.00 74 1016.0
20260901064739 26 105 0.0 0.0 0.00 0.00 0.00 74 1015.8
20260901064235 26 107 0.0 0.0 0.00 0.00 0.00 74 1015.9
20260901063732 26 103 0.0 0.0 0.00 0.00 0.00 74 1015.8
20260901063227 26 103 0.0 0.0 0.00 0.00 0.00 74 1015.9
20260901062724 26 107 0.0 0.0 0.00 0.00 0.00 75 1015.9
20260901062219 26 107 0.0 0.0 0.00 0.00 0.00 74 1015.9
20260901061715 26 107 0.0 0.0 0.00 0.00 0.00 74 1015.7
20260901061214 26 107 0.0 0.0 0.00 0.00 0.00 74 1015.7
20260901060710 26 107 0.0 0.0 0.00 0.00 0.00 74 1015.6
20260901060205 26 104 0.0 0.0 0.00 0.00 0.00 74 1015.6
20260901055700 26 104 0.0 0.0 0.00 0.00 0.00 73 1015.6
20260901055157 26 104 0.0 0.0 0.00 0.00 0.00 73 1015.5
20260901054654 26 104 0.0 0.0 0.00 0.00 0.00 73 1015.6
20260901054150 26 104 0.0 0.0 0.00 0.00 0.00 73 1015.2
20260901053646 26 104 0.0 0.0 0.00 0.00 0.00 73 1015.2
20260901053141 26 104 0.0 0.0 0.00 0.00 0.00 72 1015.2
20260901052636 26 104 0.0 0.0 0.00 0.00 0.00 72 1015.3
20260901052132 26 104 0.0 0.0 0.00 0.00 0.00 72 1015.2
20260901051631 26 104 0.0 0.0 0.00 0.00 0.00 72 1015.2
20260901051130 26 104 0.0 0.0 0.00 0.00 0.00 71 1015.0
20260901050626 27 104 0.0 0.0 0.00 0.00 0.00 71 1015.3
20260901050121 27 100 0.0 0.0 0.00 0.00 0.00 71 1015.0
20260901045615 27 100 0.0 0.0 0.00 0.00 0.00 71 1015.1
20260901045110 27 99 0.0 0.0 0.00 0.00 0.00 70 1015.0
20260901044606 27 99 0.0 0.0 0.00 0.00 0.00 69 1014.8
20260901044102 27 99 0.0 0.0 0.00 0.00 0.00 69 1014.9
20260901043557 27 99 0.0 0.0 0.00 0.00 0.00 70 1015.0
20260901043053 27 104 0.0 0.0 0.00 0.00 0.00 71 1014.9
20260901042552 27 106 0.0 0.0 0.00 0.00 0.00 70 1014.9
20260901042048 27 106 0.0 0.0 0.00 0.00 0.00 74 1014.9
20260901041542 27 106 0.0 0.0 0.00 0.00 0.00 70 1014.8
20260901041037 27 106 0.0 0.0 0.00 0.00 0.00 71 1014.7
20260901040536 26 106 0.0 0.0 0.00 0.00 0.00 72 1014.8
20260901040031 26 108 0.0 0.0 0.00 0.00 0.00 75 1014.7
20260901035529 26 108 0.0 0.0 0.00 0.00 0.00 80 1014.8
20260901035027 26 108 0.0 0.0 0.00 0.00 0.00 81 1014.8
20260901034522 26 109 0.0 0.0 0.00 0.00 0.00 77 1014.7
20260901034017 28 102 0.0 0.0 0.00 0.00 0.00 72 1014.6
20260901033516 28 96 0.0 0.0 0.00 0.00 0.00 64 1014.5
20260901033016 28 94 0.0 0.0 0.00 0.00 0.00 64 1014.7
20260901032509 28 94 0.0 0.0 0.00 0.00 0.00 63 1014.5
20260901032004 29 92 0.0 0.0 0.00 0.00 0.00 63 1014.6
20260901031500 29 98 0.0 0.0 0.00 0.00 0.00 62 1014.5
20260901030954 29 100 0.0 0.0 0.00 0.00 0.00 62 1014.4
20260901030450 29 102 0.0 0.0 0.00 0.00 0.00 62 1014.5
20260901025948 29 102 0.0 0.0 0.00 0.00 0.00 62 1014.3
20260901025444 30 102 0.0 0.0 0.00 0.00 0.00 61 1014.4
20260901024943 30 103 0.0 0.0 0.00 0.00 0.00 61 1014.4
20260901024438 30 103 0.0 0.0 0.00 0.00 0.00 61 1014.0
20260901023936 30 103 0.0 0.0 0.00 0.00 0.00 61 1014.3
20260901023431 30 103 0.0 0.0 0.00 0.00 0.00 61 1014.0
20260901022926 30 102 0.0 0.0 0.00 0.00 0.00 61 1014.1
20260901022422 30 102 0.0 0.0 0.00 0.00 0.00 60 1013.9
20260901021917 30 102 0.0 0.0 0.00 0.00 0.00 62 1014.2
20260901021413 30 102 0.0 0.0 0.00 0.00 0.00 58 1014.1
20260901020908 30 102 0.0 0.0 0.00 0.00 0.00 57 1014.0
20260901020403 30 101 0.0 0.0 0.00 0.00 0.00 57 1014.0
20260901015902 30 100 0.0 0.0 0.00 0.00 0.00 57 1014.0
20260901015359 31 97 0.0 0.0 0.00 0.00 0.00 56 1013.9
20260901014858 31 99 0.0 0.0 0.00 0.00 0.00 56 1013.7
20260901014354 31 100 0.0 0.0 0.00 0.00 0.00 56 1013.8
20260901013849 31 100 0.0 0.0 0.00 0.00 0.00 56 1013.7
20260901013345 31 100 0.0 0.0 0.00 0.00 0.00 56 1013.8
20260901012841 31 101 0.0 0.0 0.00 0.00 0.00 56 1013.6
20260901012335 31 99 0.0 0.0 0.00 0.00 0.00 54 1013.7
20260901011830 31 100 0.0 0.0 0.00 0.00 0.00 54 1013.9
20260901011326 32 101 0.0 0.0 0.00 0.00 0.00 53 1013.8
20260901010819 32 102 0.0 0.0 0.00 0.00 0.00 52 1013.5
20260901010314 32 102 0.0 0.0 0.00 0.00 0.00 51 1013.6
20260901005813 32 102 0.0 0.0 0.00 0.00 0.00 51 1013.5
20260901005309 33 102 0.0 0.0 0.00 0.00 0.00 49 1013.5
20260901004809 33 101 0.0 0.0 0.00 0.00 0.00 49 1013.5
20260901004303 33 103 0.0 0.0 0.00 0.00 0.00 47 1013.6
20260901003803 33 103 0.0 0.0 0.00 0.00 0.00 47 1013.4
20260901003257 33 99 0.0 0.0 0.00 0.00 0.00 46 1013.5
20260901002751 33 97 0.0 0.0 0.00 0.00 0.00 46 1013.4
20260901002246 33 96 0.0 1.6 0.00 0.00 0.00 45 1013.5
20260901001741 33 94 0.0 0.0 0.00 0.00 0.00 45 1013.2
20260901001237 33 100 0.0 0.0 0.00 0.00 0.00 45 1013.4
20260901000732 33 102 0.0 0.0 0.00 0.00 0.00 45 1012.9
20260901000226 33 96 0.0 0.0 0.00 0.00 0.00 45 1013.3
20260831235720 34 107 0.0 0.0 0.00 0.00 0.00 44 1013.0
20260831235216 34 104 0.0 0.0 0.00 0.00 0.00 44 1013.1
20260831234715 34 107 0.0 0.0 0.00 0.00 0.00 44 1013.1
20260831234210 35 108 0.0 0.0 0.00 0.00 0.00 43 1013.1
20260831233706 35 102 0.0 0.0 0.00 0.00 0.00 42 1012.9
20260831233201 35 104 0.0 0.0 0.00 0.00 0.00 41 1013.4
20260831232701 35 104 0.0 0.0 0.00 0.00 0.00 41 1013.2
20260831232157 35 98 0.0 0.0 0.00 0.00 0.00 40 1013.0
20260831231653 36 94 0.0 0.0 0.00 0.00 0.00 39 1013.1
20260831231149 36 66 1.6 1.6 0.00 0.00 0.00 39 1013.1
20260831230644 36 91 0.0 0.0 0.00 0.00 0.00 38 1013.1
20260831230139 36 88 0.0 0.0 0.00 0.00 0.00 38 1013.0
20260831225638 36 85 0.0 0.0 0.00 0.00 0.00 38 1012.9
20260831225134 36 84 0.0 1.6 0.00 0.00 0.00 38 1013.0
20260831224629 36 114 0.0 0.0 0.00 0.00 0.00 38 1013.0
20260831224124 36 129 0.0 1.6 0.00 0.00 0.00 37 1013.0
20260831223619 36 109 0.0 0.0 0.00 0.00 0.00 38 1013.1
20260831223116 36 115 0.0 1.6 0.00 0.00 0.00 37 1013.0
20260831222611 36 110 1.6 1.6 0.00 0.00 0.00 38 1013.1
20260831222112 36 105 0.0 1.6 0.00 0.00 0.00 38 1013.2
20260831221607 37 105 0.0 0.0 0.00 0.00 0.00 36 1013.3
20260831221102 37 118 0.0 0.0 0.00 0.00 0.00 36 1013.4
20260831220556 37 111 0.0 0.0 0.00 0.00 0.00 36 1013.2
20260831220052 37 117 1.6 1.6 0.00 0.00 0.00 37 1013.3
20260831215548 37 135 0.0 0.0 0.00 0.00 0.00 36 1013.4
20260831215043 37 114 0.0 0.0 0.00 0.00 0.00 36 1013.4
20260831214541 37 98 0.0 1.6 0.00 0.00 0.00 37 1013.6
20260831214036 37 58 1.6 1.6 0.00 0.00 0.00 36 1013.5
20260831213533 37 54 0.0 0.0 0.00 0.00 0.00 36 1013.6
20260831213028 37 105 0.0 1.6 0.00 0.00 0.00 36 1013.6
20260831212524 37 37 0.0 1.6 0.00 0.00 0.00 36 1013.7
20260831212019 37 342 1.6 1.6 0.00 0.00 0.00 36 1013.6
20260831211514 37 110 0.0 0.0 0.00 0.00 0.00 36 1013.7
20260831211013 37 105 1.6 1.6 0.00 0.00 0.00 37 1013.8
20260831210508 37 105 1.6 1.6 0.00 0.00 0.00 36 1013.7
20260831210005 37 104 1.6 1.6 0.00 0.00 0.00 37 1013.9
20260831205459 37 99 0.0 0.0 0.00 0.00 0.00 37 1013.8
20260831204955 37 70 1.6 1.6 0.00 0.00 0.00 37 1013.9
20260831204455 37 119 1.6 1.6 0.00 0.00 0.00 37 1014.0
20260831203953 37 81 1.6 1.6 0.00 0.00 0.00 38 1014.3
20260831203448 37 133 0.0 1.6 0.00 0.00 0.00 38 1014.2
20260831202946 37 111 1.6 1.6 0.00 0.00 0.00 37 1014.4
20260831202442 37 105 1.6 3.2 0.00 0.00 0.00 36 1014.3
20260831201941 37 105 0.0 0.0 0.00 0.00 0.00 36 1014.8
20260831201439 37 190 3.2 3.2 0.00 0.00 0.00 36 1014.7
20260831200935 37 144 1.6 1.6 0.00 0.00 0.00 37 1014.7
20260831200430 37 128 1.6 1.6 0.00 0.00 0.00 37 1014.8
20260831195930 37 95 0.0 1.6 0.00 0.00 0.00 37 1014.9
20260831195426 37 126 1.6 1.6 0.00 0.00 0.00 37 1014.9
20260831194921 38 114 1.6 3.2 0.00 0.00 0.00 37 1015.1
20260831194417 37 120 0.0 1.6 0.00 0.00 0.00 37 1015.1
20260831193916 37 115 1.6 3.2 0.00 0.00 0.00 38 1015.1
20260831193411 37 112 0.0 0.0 0.00 0.00 0.00 39 1014.9
20260831192906 36 97 0.0 1.6 0.00 0.00 0.00 38 1015.3
20260831192401 36 114 0.0 0.0 0.00 0.00 0.00 39 1015.3
20260831191857 36 83 1.6 3.2 0.00 0.00 0.00 39 1015.4
20260831191353 36 113 1.6 3.2 0.00 0.00 0.00 41 1015.2
20260831190849 36 134 0.0 1.6 0.00 0.00 0.00 42 1015.5
20260831190347 36 55 0.0 1.6 0.00 0.00 0.00 41 1015.5
20260831185842 35 85 0.0 1.6 0.00 0.00 0.00 41 1015.8
20260831185338 35 76 0.0 1.6 0.00 0.00 0.00 43 1015.7
20260831184837 36 68 0.0 1.6 0.00 0.00 0.00 41 1015.6
20260831184332 36 192 1.6 1.6 0.00 0.00 0.00 41 1015.7
20260831183828 35 133 1.6 3.2 0.00 0.00 0.00 42 1015.7
20260831183327 35 94 0.0 0.0 0.00 0.00 0.00 43 1015.9
20260831182826 35 102 0.0 0.0 0.00 0.00 0.00 44 1016.0
20260831182321 35 98 0.0 0.0 0.00 0.00 0.00 45 1015.9
20260831181817 35 113 0.0 0.0 0.00 0.00 0.00 43 1016.0
20260831181312 35 143 3.2 3.2 0.00 0.00 0.00 43 1016.0
20260831180807 35 105 0.0 0.0 0.00 0.00 0.00 44 1016.2
20260831180301 35 94 0.0 0.0 0.00 0.00 0.00 45 1016.2
20260831175801 35 125 1.6 1.6 0.00 0.00 0.00 45 1016.4
20260831175257 35 106 0.0 0.0 0.00 0.00 0.00 44 1016.2
20260831174753 35 111 0.0 0.0 0.00 0.00 0.00 47 1016.5
20260831174248 35 105 1.6 1.6 0.00 0.00 0.00 46 1016.3
20260831173747 35 32 0.0 0.0 0.00 0.00 0.00 48 1016.7
20260831173241 35 22 0.0 0.0 0.00 0.00 0.00 48 1016.7
20260831172736 35 144 1.6 1.6 0.00 0.00 0.00 48 1016.9
20260831172232 35 122 0.0 0.0 0.00 0.00 0.00 47 1017.1
20260831171726 35 100 0.0 0.0 0.00 0.00 0.00 48 1016.8
20260831171224 34 95 0.0 0.0 0.00 0.00 0.00 51 1016.8
20260831170720 33 117 0.0 0.0 0.00 0.00 0.00 51 1017.0
20260831170216 34 131 1.6 1.6 0.00 0.00 0.00 51 1017.2
20260831165712 34 111 0.0 0.0 0.00 0.00 0.00 50 1017.1
20260831165209 33 187 0.0 0.0 0.00 0.00 0.00 50 1017.2
20260831164704 33 125 0.0 0.0 0.00 0.00 0.00 51 1017.3
20260831164200 33 134 3.2 3.2 0.00 0.00 0.00 52 1017.3
20260831163655 33 122 0.0 0.0 0.00 0.00 0.00 53 1017.5
20260831163151 32 128 0.0 0.0 0.00 0.00 0.00 53 1017.4
20260831162650 32 63 0.0 1.6 0.00 0.00 0.00 53 1017.6
20260831162148 32 52 1.6 3.2 0.00 0.00 0.00 52 1017.4
20260831161644 32 115 0.0 0.0 0.00 0.00 0.00 55 1017.6
20260831161140 32 118 0.0 0.0 0.00 0.00 0.00 55 1017.4
20260831160639 32 122 0.0 0.0 0.00 0.00 0.00 56 1017.5
20260831160135 32 98 0.0 0.0 0.00 0.00 0.00 57 1017.6
20260831155634 32 114 0.0 0.0 0.00 0.00 0.00 57 1017.4
20260831155130 31 108 0.0 0.0 0.00 0.00 0.00 57 1017.5
20260831154625 31 115 0.0 0.0 0.00 0.00 0.00 60 1017.3
20260831154120 31 120 0.0 1.6 0.00 0.00 0.00 59 1017.5
20260831153619 31 110 0.0 0.0 0.00 0.00 0.00 63 1017.4
20260831153117 31 87 1.6 1.6 0.00 0.00 0.00 61 1017.4
20260831152611 30 130 0.0 1.6 0.00 0.00 0.00 62 1017.3
20260831152107 30 118 0.0 0.0 0.00 0.00 0.00 64 1017.4
20260831151606 30 122 0.0 0.0 0.00 0.00 0.00 68 1017.3
20260831151101 29 91 0.0 0.0 0.00 0.00 0.00 71 1017.2
20260831150556 29 103 0.0 0.0 0.00 0.00 0.00 71 1017.1
20260831150052 28 125 3.2 3.2 0.00 0.00 0.00 71 1017.3
20260831145546 28 109 0.0 0.0 0.00 0.00 0.00 75 1017.3
20260831145043 28 104 0.0 0.0 0.00 0.00 0.00 74 1017.1
20260831144538 28 102 0.0 0.0 0.00 0.00 0.00 74 1017.3
20260831144033 28 112 0.0 0.0 0.00 0.00 0.00 77 1017.4
20260831143527 27 108 0.0 0.0 0.00 0.00 0.00 76 1017.1
20260831143023 27 114 0.0 0.0 0.00 0.00 0.00 77 1017.2
20260831142520 27 112 0.0 0.0 0.00 0.00 0.00 78 1017.1
20260831142015 26 110 0.0 0.0 0.00 0.00 0.00 79 1017.0
20260831141514 26 106 0.0 0.0 0.00 0.00 0.00 80 1017.1
20260831141008 26 110 0.0 0.0 0.00 0.00 0.00 81 1017.1
20260831140503 26 109 0.0 0.0 0.00 0.00 0.00 81 1017.0
20260831140002 26 109 0.0 0.0 0.00 0.00 0.00 81 1017.1
20260831135500 26 110 0.0 0.0 0.00 0.00 0.00 82 1017.2
20260831134955 25 108 0.0 0.0 0.00 0.00 0.00 82 1017.1
20260831134452 25 108 0.0 0.0 0.00 0.00 0.00 83 1017.3
20260831133951 25 107 0.0 0.0 0.00 0.00 0.00 84 1017.1
20260831133446 24 107 0.0 0.0 0.00 0.00 0.00 84 1017.1
20260831132941 24 107 0.0 0.0 0.00 0.00 0.00 85 1017.1
20260831132437 23 110 0.0 0.0 0.00 0.00 0.00 86 1016.7
20260831131936 23 108 0.0 0.0 0.00 0.00 0.00 86 1016.9
20260831131431 23 106 0.0 0.0 0.00 0.00 0.00 86 1016.9
20260831130927 23 104 0.0 0.0 0.00 0.00 0.00 86 1016.5
20260831130422 23 104 0.0 0.0 0.00 0.00 0.00 87 1016.7
20260831125921 22 104 0.0 0.0 0.00 0.00 0.00 88 1016.7
20260831125416 22 104 0.0 0.0 0.00 0.00 0.00 88 1016.5
20260831124912 22 104 0.0 0.0 0.00 0.00 0.00 89 1016.4
20260831124408 22 105 0.0 0.0 0.00 0.00 0.00 89 1016.2
20260831123903 22 105 0.0 0.0 0.00 0.00 0.00 89 1016.4
20260831123401 21 103 0.0 0.0 0.00 0.00 0.00 90 1016.5
20260831122856 21 102 0.0 0.0 0.00 0.00 0.00 89 1016.3
20260831122351 22 102 0.0 0.0 0.00 0.00 0.00 89 1016.1
20260831121846 21 105 0.0 0.0 0.00 0.00 0.00 89 1016.0
20260831121343 21 110 0.0 0.0 0.00 0.00 0.00 88 1016.1
20260831120838 21 111 0.0 0.0 0.00 0.00 0.00 88 1015.7
20260831120332 22 110 0.0 0.0 0.00 0.00 0.00 88 1016.0
20260831115827 22 109 0.0 0.0 0.00 0.00 0.00 87 1015.8
20260831115324 22 109 0.0 0.0 0.00 0.00 0.00 88 1015.6
20260831114823 22 109 0.0 0.0 0.00 0.00 0.00 88 1015.6
20260831114321 22 109 0.0 0.0 0.00 0.00 0.00 88 1015.6
20260831113817 22 107 0.0 0.0 0.00 0.00 0.00 88 1015.7
20260831113312 22 108 0.0 0.0 0.00 0.00 0.00 87 1015.5
20260831112811 22 109 0.0 0.0 0.00 0.00 0.00 87 1015.4
20260831112301 22 108 0.0 0.0 0.00 0.00 0.00 87 1015.5
20260831111756 22 109 0.0 0.0 0.00 0.00 0.00 86 1015.6
20260831111253 22 109 0.0 0.0 0.00 0.00 0.00 87 1015.8
20260831110749 22 109 0.0 0.0 0.00 0.00 0.00 86 1015.5
20260831110243 22 109 0.0 0.0 0.00 0.00 0.00 84 1015.4
20260831105742 22 108 0.0 0.0 0.00 0.00 0.00 84 1015.4
20260831105238 22 108 0.0 0.0 0.00 0.00 0.00 85 1015.5
20260831104732 22 108 0.0 0.0 0.00 0.00 0.00 85 1015.4
20260831104230 22 109 0.0 0.0 0.00 0.00 0.00 84 1015.4
20260831103729 22 109 0.0 0.0 0.00 0.00 0.00 84 1015.4
20260831103225 22 109 0.0 0.0 0.00 0.00 0.00 83 1015.3
20260831102724 23 109 0.0 0.0 0.00 0.00 0.00 84 1015.3
20260831102219 23 109 0.0 0.0 0.00 0.00 0.00 82 1015.4
20260831101715 23 108 0.0 0.0 0.00 0.00 0.00 82 1015.4
20260831101210 23 107 0.0 0.0 0.00 0.00 0.00 82 1015.3
20260831100706 23 107 0.0 0.0 0.00 0.00 0.00 82 1015.3
20260831100202 23 107 0.0 0.0 0.00 0.00 0.00 82 1015.3
20260831095700 23 107 0.0 0.0 0.00 0.00 0.00 82 1015.4
20260831095155 23 107 0.0 0.0 0.00 0.00 0.00 82 1015.2
20260831094650 23 107 0.0 0.0 0.00 0.00 0.00 81 1015.3
20260831094146 23 107 0.0 0.0 0.00 0.00 0.00 81 1015.3
20260831093642 23 107 0.0 0.0 0.00 0.00 0.00 81 1015.2
20260831093138 23 107 0.0 0.0 0.00 0.00 0.00 80 1015.1
20260831092634 23 107 0.0 0.0 0.00 0.00 0.00 80 1015.1
20260831092129 23 107 0.0 0.0 0.00 0.00 0.00 80 1015.1
20260831091629 23 107 0.0 0.0 0.00 0.00 0.00 80 1015.0
20260831091124 23 107 0.0 0.0 0.00 0.00 0.00 79 1015.0
20260831090620 24 107 0.0 0.0 0.00 0.00 0.00 79 1015.3
20260831090116 24 107 0.0 0.0 0.00 0.00 0.00 79 1015.0
20260831085611 24 107 0.0 0.0 0.00 0.00 0.00 78 1015.2
20260831085106 24 107 0.0 0.0 0.00 0.00 0.00 77 1015.1
20260831084602 24 105 0.0 0.0 0.00 0.00 0.00 77 1015.0
20260831084058 24 104 0.0 0.0 0.00 0.00 0.00 77 1015.1
20260831083553 24 103 0.0 0.0 0.00 0.00 0.00 77 1015.3